EZY505T EGKK-LPMA

Flight info

Callsign EZY505T
Flight time N/A
Altitude 37000
Route NOVMA1X NOVMA L620 SAM M195 LORKU DCT EBOMO DCT COQUE DCT KORUL DCT DEMOS DCT ASMAR DCT VERAM DCT TELMU DCT LIDRO LIDRO1P
Aircraft A320/M-SDE3FGHIRWY/LB1

Departure

Time N/A
Airport London Gatwick Airport (EGKK)

Arrival

Time 2026-05-03 22:07
Airport Cristiano Ronaldo International Airport (LPMA)
Time Latitude Longitude Altitude Speed Heading
2026-05-03 20:15 39.99973 -11.06584 37077 ft 429 kts 217°
2026-05-03 20:15 39.94979 -11.10835 37076 ft 428 kts 217°
2026-05-03 20:16 39.89985 -11.15077 37087 ft 428 kts 217°
2026-05-03 20:16 39.84997 -11.19321 37072 ft 429 kts 217°
2026-05-03 20:17 39.79994 -11.23589 37065 ft 431 kts 217°
2026-05-03 20:17 39.74967 -11.27862 37066 ft 432 kts 217°
2026-05-03 20:18 39.69954 -11.32092 37078 ft 433 kts 217°
2026-05-03 20:18 39.64902 -11.36345 37079 ft 433 kts 217°
2026-05-03 20:19 39.59847 -11.40602 37085 ft 433 kts 217°
2026-05-03 20:19 39.54793 -11.44860 37094 ft 433 kts 217°
2026-05-03 20:20 39.49733 -11.49103 37100 ft 433 kts 217°
2026-05-03 20:20 39.44672 -11.53342 37104 ft 433 kts 217°
2026-05-03 20:21 39.39648 -11.57548 37106 ft 433 kts 217°
2026-05-03 20:21 39.34592 -11.61771 37108 ft 433 kts 217°
2026-05-03 20:22 39.29536 -11.65983 37110 ft 432 kts 217°
2026-05-03 20:22 39.24480 -11.70185 37108 ft 432 kts 217°
2026-05-03 20:23 39.19427 -11.74384 37113 ft 432 kts 217°
2026-05-03 20:23 39.14377 -11.78571 37115 ft 431 kts 217°
2026-05-03 20:24 39.09330 -11.82750 37120 ft 431 kts 217°
2026-05-03 20:24 39.04317 -11.86899 37121 ft 431 kts 217°
2026-05-03 20:25 38.99273 -11.91065 37119 ft 431 kts 217°
2026-05-03 20:25 38.94225 -11.95220 37121 ft 431 kts 217°
2026-05-03 20:26 38.89179 -11.99363 37123 ft 431 kts 217°
2026-05-03 20:26 38.84135 -12.03501 37127 ft 430 kts 217°
2026-05-03 20:27 38.79094 -12.07628 37125 ft 429 kts 217°
2026-05-03 20:27 38.74100 -12.11725 37125 ft 429 kts 217°
2026-05-03 20:28 38.69077 -12.15836 37132 ft 429 kts 217°
2026-05-03 20:28 38.64048 -12.19933 37131 ft 428 kts 217°
2026-05-03 20:29 38.59018 -12.24021 37140 ft 428 kts 217°
2026-05-03 20:29 38.53985 -12.28095 37136 ft 428 kts 217°
2026-05-03 20:30 38.48961 -12.32168 37136 ft 428 kts 218°
2026-05-03 20:30 38.43939 -12.36244 37136 ft 427 kts 218°
2026-05-03 20:31 38.38959 -12.40280 37139 ft 427 kts 218°
2026-05-03 20:31 38.33943 -12.44325 37140 ft 426 kts 218°
2026-05-03 20:32 38.28926 -12.48357 37142 ft 426 kts 218°
2026-05-03 20:32 38.23911 -12.52382 37143 ft 426 kts 218°
2026-05-03 20:33 38.18906 -12.56413 37145 ft 426 kts 218°
2026-05-03 20:33 38.13907 -12.60429 37140 ft 425 kts 218°
2026-05-03 20:34 38.08907 -12.64433 37143 ft 424 kts 218°
2026-05-03 20:34 38.03912 -12.68424 37143 ft 424 kts 218°
2026-05-03 20:35 37.98953 -12.72371 37144 ft 423 kts 218°
2026-05-03 20:35 37.93968 -12.76341 37149 ft 423 kts 218°
2026-05-03 20:36 37.88988 -12.80304 37145 ft 422 kts 218°
2026-05-03 20:36 37.84017 -12.84261 37143 ft 422 kts 218°
2026-05-03 20:37 37.79044 -12.88204 37147 ft 422 kts 218°
2026-05-03 20:37 37.74068 -12.92129 37161 ft 421 kts 218°
2026-05-03 20:38 37.69101 -12.96048 37143 ft 421 kts 218°
2026-05-03 20:38 37.64168 -12.99940 37147 ft 421 kts 218°
2026-05-03 20:39 37.59208 -13.03848 37139 ft 420 kts 218°
2026-05-03 20:39 37.54249 -13.07754 37150 ft 420 kts 218°
2026-05-03 20:40 37.49291 -13.11653 37146 ft 420 kts 218°
2026-05-03 20:40 37.44333 -13.15537 37148 ft 420 kts 218°
2026-05-03 20:41 37.39375 -13.19416 37149 ft 420 kts 218°
2026-05-03 20:41 37.34418 -13.23286 37149 ft 419 kts 218°
2026-05-03 20:42 37.29463 -13.27150 37153 ft 419 kts 218°
2026-05-03 20:42 37.24508 -13.31007 37152 ft 419 kts 218°
2026-05-03 20:43 37.19553 -13.34862 37152 ft 419 kts 218°
2026-05-03 20:43 37.14630 -13.38687 37153 ft 419 kts 218°
2026-05-03 20:44 37.09666 -13.42541 37156 ft 418 kts 218°
2026-05-03 20:44 37.04738 -13.46350 37157 ft 418 kts 218°
2026-05-03 20:45 36.99792 -13.50181 37159 ft 418 kts 218°
2026-05-03 20:45 36.94844 -13.53995 37161 ft 418 kts 218°
2026-05-03 20:46 36.89902 -13.57802 37157 ft 417 kts 218°
2026-05-03 20:46 36.84959 -13.61608 37155 ft 417 kts 218°
2026-05-03 20:47 36.80019 -13.65406 37159 ft 417 kts 218°
2026-05-03 20:47 36.75095 -13.69183 37158 ft 417 kts 218°
2026-05-03 20:48 36.70137 -13.72977 37170 ft 417 kts 218°
2026-05-03 20:48 36.65222 -13.76736 37165 ft 416 kts 218°
2026-05-03 20:49 36.60286 -13.80505 37165 ft 416 kts 218°
2026-05-03 20:49 36.55356 -13.84267 37165 ft 416 kts 218°
2026-05-03 20:50 36.50418 -13.88026 37170 ft 416 kts 218°
2026-05-03 20:50 36.45485 -13.91771 37172 ft 415 kts 218°
2026-05-03 20:51 36.40552 -13.95512 37169 ft 415 kts 218°
2026-05-03 20:51 36.35628 -13.99242 37171 ft 415 kts 218°
2026-05-03 20:52 36.30707 -14.02965 37165 ft 414 kts 218°
2026-05-03 20:52 36.25825 -14.06650 37160 ft 413 kts 218°
2026-05-03 20:53 36.20914 -14.10356 37170 ft 413 kts 218°
2026-05-03 20:53 36.16017 -14.14056 37171 ft 412 kts 218°
2026-05-03 20:54 36.11114 -14.17739 37167 ft 412 kts 218°
2026-05-03 20:54 36.03751 -14.23249 37154 ft 412 kts 218°
2026-05-03 20:55 35.98887 -14.26903 37174 ft 412 kts 218°
2026-05-03 20:55 35.93989 -14.30572 37167 ft 412 kts 218°
2026-05-03 20:56 35.89091 -14.34228 37168 ft 411 kts 218°
2026-05-03 20:56 35.84198 -14.37883 37164 ft 411 kts 217°
2026-05-03 20:57 35.79296 -14.41531 37160 ft 411 kts 217°
2026-05-03 20:57 35.74397 -14.45172 37151 ft 411 kts 217°
2026-05-03 20:58 35.69494 -14.48808 37155 ft 412 kts 217°
2026-05-03 20:58 35.64610 -14.52428 37156 ft 412 kts 217°
2026-05-03 20:59 35.59694 -14.56078 37159 ft 412 kts 217°
2026-05-03 20:59 35.54781 -14.59719 37161 ft 413 kts 217°
2026-05-03 21:00 35.51490 -14.62151 37162 ft 413 kts 217°
2026-05-03 21:00 35.44992 -14.66935 37157 ft 399 kts 217°
2026-05-03 21:01 35.40297 -14.70374 37158 ft 390 kts 217°
2026-05-03 21:01 35.35662 -14.73778 37159 ft 388 kts 217°
2026-05-03 21:02 35.31034 -14.77189 37163 ft 388 kts 217°
2026-05-03 21:02 35.26400 -14.80592 37158 ft 388 kts 217°
2026-05-03 21:03 35.21763 -14.83990 37154 ft 389 kts 217°
2026-05-03 21:03 35.17124 -14.87383 37148 ft 389 kts 217°
2026-05-03 21:04 35.12479 -14.90776 37144 ft 389 kts 217°
2026-05-03 21:04 35.07836 -14.94166 37143 ft 389 kts 217°
2026-05-03 21:05 35.03216 -14.97525 37139 ft 389 kts 217°
2026-05-03 21:05 34.98573 -15.00910 37142 ft 389 kts 217°
2026-05-03 21:06 34.93924 -15.04288 37145 ft 389 kts 217°
2026-05-03 21:06 34.89270 -15.07664 37146 ft 389 kts 217°
2026-05-03 21:07 34.84609 -15.11037 37145 ft 390 kts 216°
2026-05-03 21:07 34.79944 -15.14406 37140 ft 390 kts 217°
2026-05-03 21:08 34.75281 -15.17784 37141 ft 390 kts 217°
2026-05-03 21:08 34.70617 -15.21148 37138 ft 390 kts 216°
2026-05-03 21:09 34.65947 -15.24513 37139 ft 390 kts 216°
2026-05-03 21:09 34.61277 -15.27871 37142 ft 390 kts 216°
2026-05-03 21:10 34.56604 -15.31230 37143 ft 390 kts 216°
2026-05-03 21:10 34.51928 -15.34578 37144 ft 390 kts 216°
2026-05-03 21:11 34.47255 -15.37930 37140 ft 390 kts 216°
2026-05-03 21:11 34.42582 -15.41280 37146 ft 390 kts 216°
2026-05-03 21:12 34.37902 -15.44619 37145 ft 390 kts 216°
2026-05-03 21:12 34.34018 -15.47395 37136 ft 390 kts 216°
2026-05-03 21:13 34.29345 -15.50738 37137 ft 390 kts 216°
2026-05-03 21:13 34.24672 -15.54067 37136 ft 390 kts 216°
2026-05-03 21:14 34.19992 -15.57399 37118 ft 391 kts 216°
2026-05-03 21:14 34.15292 -15.60739 37109 ft 392 kts 216°
2026-05-03 21:15 34.10575 -15.64079 37115 ft 394 kts 216°
2026-05-03 21:15 34.05851 -15.67425 36990 ft 394 kts 216°
2026-05-03 21:16 34.03474 -15.69110 36301 ft 396 kts 216°
2026-05-03 21:16 34.01123 -15.70775 35433 ft 400 kts 216°
2026-05-03 21:16 33.98712 -15.72483 34661 ft 403 kts 216°
2026-05-03 21:16 33.96316 -15.74175 33872 ft 396 kts 216°
2026-05-03 21:17 33.93958 -15.75837 32832 ft 390 kts 216°
2026-05-03 21:17 33.91630 -15.77478 31816 ft 386 kts 216°
2026-05-03 21:17 33.89325 -15.79101 30825 ft 382 kts 216°
2026-05-03 21:17 33.87041 -15.80706 29815 ft 379 kts 216°
2026-05-03 21:18 33.84792 -15.82280 29198 ft 365 kts 216°
2026-05-03 21:18 33.82655 -15.83769 28860 ft 347 kts 216°
2026-05-03 21:18 33.80591 -15.85217 28484 ft 340 kts 217°
2026-05-03 21:18 33.78566 -15.86647 28116 ft 335 kts 217°
2026-05-03 21:19 33.76572 -15.88056 27742 ft 330 kts 217°
2026-05-03 21:19 33.74602 -15.89447 27366 ft 326 kts 217°
2026-05-03 21:19 33.72658 -15.90819 26999 ft 322 kts 217°
2026-05-03 21:19 33.70735 -15.92174 26614 ft 319 kts 217°
2026-05-03 21:20 33.68857 -15.93496 26234 ft 316 kts 217°
2026-05-03 21:20 33.66968 -15.94819 25818 ft 314 kts 217°
2026-05-03 21:20 33.65099 -15.96170 25378 ft 313 kts 218°
2026-05-03 21:20 33.63266 -15.97566 24937 ft 312 kts 219°
2026-05-03 21:21 33.61443 -15.98983 24483 ft 312 kts 219°
2026-05-03 21:21 33.59624 -16.00402 24032 ft 312 kts 219°
2026-05-03 21:21 33.57795 -16.01824 23545 ft 314 kts 218°
2026-05-03 21:21 33.55961 -16.03243 23042 ft 313 kts 218°
2026-05-03 21:22 33.54132 -16.04650 22595 ft 312 kts 218°
2026-05-03 21:22 33.52303 -16.06052 22148 ft 311 kts 218°
2026-05-03 21:22 33.50480 -16.07447 21696 ft 311 kts 218°
2026-05-03 21:22 33.48653 -16.08842 21261 ft 311 kts 217°
2026-05-03 21:23 33.46832 -16.10231 20825 ft 311 kts 217°
2026-05-03 21:23 33.45010 -16.11624 20390 ft 311 kts 217°
2026-05-03 21:23 33.43186 -16.13020 19947 ft 312 kts 217°
2026-05-03 21:23 33.41382 -16.14397 19518 ft 312 kts 217°
2026-05-03 21:24 33.39547 -16.15798 19081 ft 313 kts 217°
2026-05-03 21:24 33.37705 -16.17200 18635 ft 315 kts 217°
2026-05-03 21:24 33.35853 -16.18610 18167 ft 316 kts 217°
2026-05-03 21:24 33.33998 -16.20024 17713 ft 316 kts 217°
2026-05-03 21:25 33.32147 -16.21435 17278 ft 315 kts 216°
2026-05-03 21:25 33.30297 -16.22844 16841 ft 315 kts 216°
2026-05-03 21:25 33.28446 -16.24250 16418 ft 315 kts 216°
2026-05-03 21:25 33.26596 -16.25654 15995 ft 315 kts 216°
2026-05-03 21:26 33.24745 -16.27060 15582 ft 315 kts 216°
2026-05-03 21:26 33.22895 -16.28469 15155 ft 316 kts 216°
2026-05-03 21:26 33.21042 -16.29878 14730 ft 316 kts 216°
2026-05-03 21:26 33.19186 -16.31285 14299 ft 317 kts 215°
2026-05-03 21:27 33.17324 -16.32695 13874 ft 317 kts 215°
2026-05-03 21:27 33.15459 -16.34105 13400 ft 317 kts 215°
2026-05-03 21:27 33.13598 -16.35513 12967 ft 316 kts 215°
2026-05-03 21:27 33.11746 -16.36916 12539 ft 315 kts 215°
2026-05-03 21:28 33.09920 -16.38302 12105 ft 314 kts 215°
2026-05-03 21:28 33.08078 -16.39695 11668 ft 313 kts 215°
2026-05-03 21:28 33.06239 -16.41082 11219 ft 313 kts 214°
2026-05-03 21:28 33.04401 -16.42466 10760 ft 313 kts 214°
2026-05-03 21:29 33.02563 -16.43853 10299 ft 313 kts 214°
2026-05-03 21:29 33.00725 -16.45241 9812 ft 313 kts 214°
2026-05-03 21:29 32.98891 -16.46625 9315 ft 312 kts 214°
2026-05-03 21:29 32.97061 -16.48005 8834 ft 311 kts 214°
2026-05-03 21:30 32.95238 -16.49380 8340 ft 310 kts 214°
2026-05-03 21:30 32.93441 -16.50734 8116 ft 300 kts 215°
2026-05-03 21:30 32.91835 -16.52196 8110 ft 281 kts 222°
2026-05-03 21:30 32.90408 -16.53673 8112 ft 264 kts 224°
2026-05-03 21:31 32.89092 -16.55093 8115 ft 247 kts 224°
2026-05-03 21:31 32.87844 -16.56453 8108 ft 243 kts 225°
2026-05-03 21:31 32.86616 -16.57787 7782 ft 241 kts 224°
2026-05-03 21:31 32.85383 -16.59123 7162 ft 244 kts 225°
2026-05-03 21:32 32.84321 -16.60321 6619 ft 245 kts 226°
2026-05-03 21:32 32.83108 -16.61750 5966 ft 246 kts 227°
2026-05-03 21:32 32.81900 -16.63192 5300 ft 247 kts 227°
2026-05-03 21:32 32.80686 -16.64638 4651 ft 247 kts 226°
2026-05-03 21:33 32.79469 -16.66083 3977 ft 247 kts 226°
2026-05-03 21:33 32.78249 -16.67523 3336 ft 247 kts 225°
2026-05-03 21:33 32.77037 -16.68966 2670 ft 246 kts 229°
2026-05-03 21:33 32.76216 -16.70711 2034 ft 243 kts 256°
2026-05-03 21:34 32.76196 -16.72621 1905 ft 218 kts 283°
2026-05-03 21:34 32.76773 -16.74180 2229 ft 203 kts 305°
2026-05-03 21:34 32.77790 -16.75330 2543 ft 206 kts 330°
2026-05-03 21:34 32.79143 -16.75672 2541 ft 194 kts
2026-05-03 21:35 32.80253 -16.74990 2571 ft 173 kts 49°
2026-05-03 21:35 32.80633 -16.73760 2583 ft 154 kts 86°
2026-05-03 21:35 32.80631 -16.72515 2584 ft 148 kts 95°
2026-05-03 21:35 32.80294 -16.71391 2565 ft 145 kts 130°
2026-05-03 21:36 32.79469 -16.70765 2563 ft 142 kts 169°
2026-05-03 21:36 32.78489 -16.70693 2456 ft 143 kts 180°
2026-05-03 21:36 32.77504 -16.70656 2197 ft 140 kts 181°
2026-05-03 21:36 32.76535 -16.70618 2062 ft 139 kts 181°
2026-05-03 21:37 32.75562 -16.70580 1906 ft 139 kts 180°
2026-05-03 21:37 32.74597 -16.70544 1780 ft 138 kts 180°
2026-05-03 21:37 32.73634 -16.70536 1614 ft 137 kts 189°
2026-05-03 21:37 32.72713 -16.70795 1417 ft 136 kts 199°
2026-05-03 21:38 32.71817 -16.71133 1217 ft 135 kts 200°
2026-05-03 21:38 32.70934 -16.71479 1023 ft 134 kts 200°
2026-05-03 21:38 32.70060 -16.71828 844 ft 131 kts 200°
2026-05-03 21:38 32.69245 -16.72157 1181 ft 124 kts 201°
2026-05-03 21:39 32.68391 -16.72493 1638 ft 132 kts 200°
2026-05-03 21:39 32.67494 -16.72792 2023 ft 137 kts 188°
2026-05-03 21:39 32.66605 -16.72374 2428 ft 147 kts 134°
2026-05-03 21:39 32.66204 -16.71261 2766 ft 149 kts 102°
2026-05-03 21:40 32.66050 -16.70037 3109 ft 153 kts 97°
2026-05-03 21:40 32.65929 -16.68758 3473 ft 163 kts 96°
2026-05-03 21:40 32.65800 -16.67336 3834 ft 184 kts 96°
2026-05-03 21:40 32.65658 -16.65743 4193 ft 203 kts 96°
2026-05-03 21:41 32.65501 -16.64039 4551 ft 211 kts 96°
2026-05-03 21:41 32.65574 -16.62310 4894 ft 209 kts 71°
2026-05-03 21:41 32.66312 -16.60865 5240 ft 206 kts 41°
2026-05-03 21:41 32.67540 -16.60056 5593 ft 202 kts 10°
2026-05-03 21:42 32.68933 -16.59914 5936 ft 201 kts 359°
2026-05-03 21:42 32.70341 -16.59849 6036 ft 202 kts 359°
2026-05-03 21:42 32.71744 -16.59782 6046 ft 202 kts 359°
2026-05-03 21:42 32.73147 -16.59717 6048 ft 202 kts 359°
2026-05-03 21:43 32.74548 -16.59652 6050 ft 201 kts 359°
2026-05-03 21:43 32.75946 -16.59586 6051 ft 201 kts 359°
2026-05-03 21:43 32.77345 -16.59518 6049 ft 201 kts 359°
2026-05-03 21:43 32.78746 -16.59450 6054 ft 201 kts 359°
2026-05-03 21:44 32.80145 -16.59382 6056 ft 201 kts 359°
2026-05-03 21:44 32.81543 -16.59313 6055 ft 201 kts 359°
2026-05-03 21:44 32.82942 -16.59245 6056 ft 201 kts 359°
2026-05-03 21:44 32.84343 -16.59176 6057 ft 201 kts 359°
2026-05-03 21:45 32.85741 -16.59107 6060 ft 201 kts 359°
2026-05-03 21:45 32.87139 -16.59031 6059 ft 201 kts 359°
2026-05-03 21:45 32.88537 -16.58956 6064 ft 201 kts 359°
2026-05-03 21:45 32.89937 -16.58881 6064 ft 201 kts 359°
2026-05-03 21:46 32.91320 -16.58806 6075 ft 201 kts 360°
2026-05-03 21:46 32.92720 -16.58732 6074 ft 201 kts 359°
2026-05-03 21:46 32.94118 -16.58672 6066 ft 202 kts 355°
2026-05-03 21:46 32.95542 -16.58755 6074 ft 207 kts 355°
2026-05-03 21:47 32.96988 -16.58806 6072 ft 208 kts 355°
2026-05-03 21:47 32.98437 -16.58852 6073 ft 208 kts 355°
2026-05-03 21:47 32.99886 -16.58898 6072 ft 208 kts 355°
2026-05-03 21:47 33.01300 -16.59145 6074 ft 204 kts 332°
2026-05-03 21:48 33.02321 -16.60241 6067 ft 199 kts 296°
2026-05-03 21:48 33.02584 -16.61826 6071 ft 198 kts 264°
2026-05-03 21:48 33.02105 -16.63348 5850 ft 198 kts 233°
2026-05-03 21:48 33.01018 -16.64327 5647 ft 200 kts 202°
2026-05-03 21:49 32.99646 -16.64530 5490 ft 200 kts 182°
2026-05-03 21:49 32.98234 -16.64516 5055 ft 207 kts 182°
2026-05-03 21:49 32.96770 -16.64507 4554 ft 214 kts 182°
2026-05-03 21:49 32.95267 -16.64498 4123 ft 215 kts 181°
2026-05-03 21:50 32.93823 -16.64487 4057 ft 199 kts 181°
2026-05-03 21:50 32.92452 -16.64478 4058 ft 196 kts 181°
2026-05-03 21:50 32.91092 -16.64470 4061 ft 195 kts 181°
2026-05-03 21:50 32.89736 -16.64462 4059 ft 194 kts 181°
2026-05-03 21:51 32.88413 -16.64454 4066 ft 188 kts 181°
2026-05-03 21:51 32.87113 -16.64448 4061 ft 186 kts 181°
2026-05-03 21:51 32.85830 -16.64262 4052 ft 188 kts 160°
2026-05-03 21:51 32.84795 -16.63329 4051 ft 190 kts 126°
2026-05-03 21:52 32.84384 -16.61851 4051 ft 192 kts 90°
2026-05-03 21:52 32.84746 -16.60349 4058 ft 191 kts 57°
2026-05-03 21:52 32.85464 -16.59021 4056 ft 191 kts 56°
2026-05-03 21:52 32.86182 -16.57688 4059 ft 192 kts 56°
2026-05-03 21:53 32.86893 -16.56371 4063 ft 191 kts 53°
2026-05-03 21:53 32.87880 -16.55349 4077 ft 189 kts 23°
2026-05-03 21:53 32.89152 -16.55101 4074 ft 186 kts 350°
2026-05-03 21:53 32.90317 -16.55692 4073 ft 183 kts 319°
2026-05-03 21:54 32.91042 -16.56903 4073 ft 181 kts 288°
2026-05-03 21:54 32.91155 -16.58387 3836 ft 186 kts 258°
2026-05-03 21:54 32.90557 -16.59770 3333 ft 195 kts 226°
2026-05-03 21:54 32.89394 -16.60550 3060 ft 190 kts 192°
2026-05-03 21:55 32.88104 -16.60481 3057 ft 186 kts 162°
2026-05-03 21:55 32.86912 -16.59896 3056 ft 185 kts 157°
2026-05-03 21:55 32.85706 -16.59385 3050 ft 184 kts 174°
2026-05-03 21:55 32.84461 -16.59607 3054 ft 186 kts 207°
2026-05-03 21:56 32.83569 -16.60694 3057 ft 188 kts 246°
2026-05-03 21:56 32.83456 -16.62215 3053 ft 189 kts 284°
2026-05-03 21:56 32.84177 -16.63487 3054 ft 190 kts 323°
2026-05-03 21:56 32.85403 -16.64068 3068 ft 192 kts 343°
2026-05-03 21:57 32.86679 -16.64527 3058 ft 191 kts 341°
2026-05-03 21:57 32.87948 -16.65004 3055 ft 191 kts 341°
2026-05-03 21:57 32.89216 -16.65483 3060 ft 191 kts 341°
2026-05-03 21:57 32.90525 -16.65698 3051 ft 193 kts
2026-05-03 21:58 32.91686 -16.64947 3057 ft 195 kts 49°
2026-05-03 21:58 32.92162 -16.63475 3067 ft 195 kts 90°
2026-05-03 21:58 32.91832 -16.61935 3066 ft 194 kts 121°
2026-05-03 21:58 32.90876 -16.60843 3065 ft 192 kts 154°
2026-05-03 21:59 32.89605 -16.60381 3072 ft 192 kts 167°
2026-05-03 21:59 32.88311 -16.60000 3063 ft 191 kts 167°
2026-05-03 21:59 32.86997 -16.59781 3062 ft 191 kts 180°
2026-05-03 21:59 32.85686 -16.59942 3060 ft 190 kts 193°
2026-05-03 22:00 32.84445 -16.60467 3056 ft 189 kts 207°
2026-05-03 22:00 32.83345 -16.61329 2926 ft 190 kts 221°
2026-05-03 22:00 32.82370 -16.62378 2727 ft 188 kts 223°
2026-05-03 22:00 32.81401 -16.63417 2518 ft 187 kts 223°
2026-05-03 22:01 32.80435 -16.64449 2317 ft 186 kts 223°
2026-05-03 22:01 32.79698 -16.65232 2167 ft 185 kts 222°
2026-05-03 22:01 32.78742 -16.66250 2064 ft 185 kts 222°
2026-05-03 22:01 32.77787 -16.67268 2043 ft 185 kts 223°
2026-05-03 22:02 32.76832 -16.68286 2039 ft 185 kts 223°
2026-05-03 22:02 32.75876 -16.69305 2037 ft 184 kts 223°
2026-05-03 22:02 32.75244 -16.69980 2036 ft 184 kts 223°
2026-05-03 22:02 32.74232 -16.70837 2037 ft 172 kts 208°
2026-05-03 22:03 32.72894 -16.71636 1710 ft 161 kts 208°
2026-05-03 22:03 32.71887 -16.72244 1263 ft 162 kts 208°
2026-05-03 22:03 32.70926 -16.72824 1108 ft 150 kts 208°
2026-05-03 22:03 32.70013 -16.73375 1017 ft 145 kts 208°
2026-05-03 22:04 32.69406 -16.73743 975 ft 144 kts 207°
2026-05-03 22:04 32.68500 -16.74226 905 ft 143 kts 201°
2026-05-03 22:04 32.67574 -16.74632 882 ft 141 kts 203°
2026-05-03 22:04 32.66869 -16.75402 876 ft 140 kts 239°
2026-05-03 22:05 32.66375 -16.76406 917 ft 141 kts 238°
2026-05-03 22:05 32.65913 -16.77407 965 ft 142 kts 250°
2026-05-03 22:05 32.65931 -16.78570 908 ft 146 kts 289°
2026-05-03 22:05 32.66616 -16.79459 730 ft 150 kts 329°
2026-05-03 22:06 32.67660 -16.79550 481 ft 156 kts 18°
2026-05-03 22:06 32.68557 -16.78834 323 ft 158 kts 41°
2026-05-03 22:06 32.69353 -16.77946 197 ft 151 kts 43°
2026-05-03 22:06 32.70020 -16.77180 180 ft 103 kts 45°
2026-05-03 22:07 32.70335 -16.76806 198 ft 42 kts 44°
2026-05-03 22:07 32.70537 -16.76575 210 ft 26 kts 44°
2026-05-03 22:07 32.70629 -16.76467 206 ft 10 kts 66°
2026-05-03 22:07 32.70665 -16.76439 209 ft 4 kts 304°
2026-05-03 22:08 32.70657 -16.76448 205 ft 1 kts 220°
2026-05-03 22:08 32.70651 -16.76454 208 ft 1 kts 220°
2026-05-03 22:08 32.70644 -16.76461 205 ft 5 kts 221°
2026-05-03 22:08 32.70573 -16.76536 206 ft 22 kts 222°
2026-05-03 22:09 32.70435 -16.76695 199 ft 31 kts 224°
2026-05-03 22:09 32.70277 -16.76880 199 ft 33 kts 225°
2026-05-03 22:09 32.70117 -16.77060 183 ft 30 kts 225°
2026-05-03 22:10 32.69900 -16.77178 178 ft 19 kts 179°
2026-05-03 22:10 32.69823 -16.77195 174 ft 10 kts 223°
2026-05-03 22:10 32.69763 -16.77277 170 ft 16 kts 231°
2026-05-03 22:10 32.69671 -16.77388 168 ft 20 kts 223°
2026-05-03 22:11 32.69584 -16.77492 174 ft 18 kts 226°
2026-05-03 22:11 32.69523 -16.77565 174 ft 3 kts 213°
2026-05-03 22:11 32.69514 -16.77564 175 ft 0 kts 171°
2026-05-03 22:11 32.69501 -16.77555 176 ft 5 kts 143°
2026-05-03 22:12 32.69493 -16.77547 177 ft 0 kts 136°
2026-05-03 22:12 32.69479 -16.77530 177 ft 4 kts 138°
2026-05-03 22:12 32.69467 -16.77518 175 ft 0 kts 140°